EW3084 Weather Reports


Display with metric or nautical units.
time (UTC)temp
F
wind
direction
speed
MPH
gust
MPH
rain 1hr
in
rain 24hr
in
rain mn
in
humidity
%
barometer
mb
20260906094503 60 269 4.0 9.0 0.00 0.09 0.02 76
20260906093603 60 281 3.0 8.0 0.00 0.09 0.02 77
20260906092703 61 284 3.0 8.0 0.00 0.09 0.02 76
20260906092017 60 285 2.0 6.0 0.00 0.09 0.02 77
20260906090903 60 274 1.0 5.0 0.00 0.09 0.02 75
20260906090003 59 290 2.0 7.0 0.00 0.09 0.02 77
20260906085403 59 303 2.0 5.0 0.00 0.09 0.02 80
20260906084503 58 287 3.0 6.0 0.00 0.09 0.02 84
20260906083819 57 263 4.0 7.0 0.00 0.09 0.02 86
20260906082703 56 277 2.0 4.0 0.00 0.09 0.02 86
20260906081803 56 291 2.0 7.0 0.00 0.09 0.02 92
20260906080903 56 299 1.0 4.0 0.00 0.09 0.02 96
20260906080003 55 294 1.0 6.0 0.00 0.09 0.02 100
20260906075403 54 285 3.0 5.0 0.00 0.09 0.02 100
20260906074503 54 270 3.0 6.0 0.00 0.09 0.02 100
20260906073603 53 285 2.0 7.0 0.00 0.09 0.02 100
20260906072703 52 289 2.0 5.0 0.00 0.09 0.02 100
20260906071803 52 273 2.0 5.0 0.01 0.09 0.02 100
20260906070903 51 294 1.0 4.0 0.01 0.09 0.02 100
20260906070003 50 281 2.0 5.0 0.01 0.09 0.02 100
20260906065403 50 283 2.0 5.0 0.01 0.09 0.02 100
20260906064718 49 288 2.0 4.0 0.01 0.09 0.02 100
20260906063603 49 283 1.0 3.0 0.01 0.09 0.02 100
20260906062703 48 291 2.0 6.0 0.01 0.09 0.02 100
20260906061803 48 286 1.0 4.0 0.00 0.09 0.01 100
20260906060903 47 288 1.0 4.0 0.00 0.09 0.01 100
20260906060003 46 285 1.0 3.0 0.00 0.09 0.01 100
20260906055403 46 275 1.0 3.0 0.00 0.09 0.01 100
20260906054503 46 272 0.0 3.0 0.00 0.09 0.01 100
20260906053603 45 300 0.0 2.0 0.00 0.09 0.01 100
20260906052703 45 296 0.0 2.0 0.00 0.09 0.01 100
20260906051803 45 294 0.0 2.0 0.00 0.09 0.01 100
20260906050903 45 301 0.0 3.0 0.00 0.09 0.01 100
20260906050003 45 282 1.0 4.0 0.00 0.09 0.01 100
20260906045403 45 286 1.0 4.0 0.00 0.09 0.01 100
20260906044503 45 305 0.0 3.0 0.00 0.09 0.01 100
20260906043603 45 304 2.0 5.0 0.00 0.09 0.01 100
20260906042703 45 292 2.0 5.0 0.00 0.09 0.01 100
20260906042016 45 289 1.0 4.0 0.00 0.09 0.01 100
20260906041119 45 297 0.0 3.0 0.00 0.09 0.01 100
20260906040218 45 297 0.0 3.0 0.00 0.09 0.01 100
20260906035403 45 287 1.0 4.0 0.00 0.09 0.01 100
20260906034717 45 295 1.0 4.0 0.00 0.09 0.01 100
20260906033603 45 288 1.0 4.0 0.00 0.09 0.01 100
20260906032703 46 301 2.0 7.0 0.00 0.09 0.01 100
20260906031803 45 300 1.0 4.0 0.00 0.09 0.01 100
20260906031119 46 294 0.0 3.0 0.01 0.09 0.01 100
20260906030003 46 298 0.0 3.0 0.01 0.09 0.01 100
20260906025617 46 294 0.0 3.0 0.01 0.09 0.01 100
20260906024503 46 282 1.0 6.0 0.01 0.09 0.01 100
20260906023603 46 295 0.0 1.0 0.01 0.09 0.01 100
20260906022703 46 308 0.0 3.0 0.01 0.09 0.01 100
20260906021803 46 311 0.0 5.0 0.01 0.09 0.01 100
20260906020903 47 309 1.0 5.0 0.00 0.08 0.00 100
20260906020003 47 294 1.0 5.0 0.00 0.08 0.00 100
20260906015617 47 293 1.0 5.0 0.00 0.08 0.00 100
20260906014503 47 297 0.0 3.0 0.00 0.08 0.00 100
20260906013603 47 296 1.0 5.0 0.00 0.08 0.00 100
20260906012703 47 306 1.0 5.0 0.00 0.08 0.00 100
20260906011803 47 303 1.0 5.0 0.00 0.08 0.00 100
20260906010903 47 297 2.0 5.0 0.00 0.08 0.00 100
20260906010003 47 299 0.0 5.0 0.00 0.08 0.00 100
20260906005403 47 298 0.0 4.0 0.00 0.08 0.00 100
20260906004503 47 288 0.0 2.0 0.00 0.08 0.00 100
20260906003603 47 290 0.0 2.0 0.00 0.08 0.00 100
20260906002703 47 0 0.0 0.0 0.00 0.08 0.00 100
20260906001803 47 289 0.0 2.0 0.00 0.08 0.00 100
20260906000903 47 0 0.0 0.0 0.00 0.08 0.00 100
20260906000003 47 287 0.0 1.0 0.00 0.08 0.00 100
20260905235616 47 0 0.0 0.0 0.00 0.08 0.00 100
20260905234503 48 282 0.0 4.0 0.00 0.08 0.00 100
20260905233603 48 294 0.0 4.0 0.00 0.08 0.00 100
20260905232703 48 307 0.0 3.0 0.00 0.08 0.00 100
20260905231803 48 313 0.0 4.0 0.00 0.08 0.00 100
20260905230903 48 318 0.0 3.0 0.00 0.08 0.00 100
20260905230216 48 345 0.0 2.0 0.00 0.08 0.00 100
20260905225403 48 326 0.0 1.0 0.00 0.08 0.00 100
20260905224503 48 326 0.0 2.0 0.00 0.08 0.00 100
20260905223603 47 326 0.0 1.0 0.00 0.08 0.00 100
20260905222703 48 0 0.0 0.0 0.00 0.08 0.00 100
20260905221803 48 0 0.0 0.0 0.00 0.08 0.00 100
20260905220903 48 326 0.0 2.0 0.00 0.08 0.00 100
20260905220004 48 326 0.0 2.0 0.00 0.08 0.00 100
20260905215616 48 0 0.0 0.0 0.00 0.08 0.08 100
20260905214503 48 318 0.0 1.0 0.00 0.08 0.08 100
20260905213603 47 316 1.0 3.0 0.00 0.08 0.08 100
20260905212703 47 356 0.0 2.0 0.00 0.08 0.08 100
20260905211803 48 0 0.0 0.0 0.00 0.08 0.08 100
20260905210903 48 356 0.0 1.0 0.00 0.08 0.08 100
20260905210003 48 0 0.0 0.0 0.00 0.08 0.08 100
20260905205403 48 0 0.0 0.0 0.00 0.08 0.08 100
20260905204719 48 0 0.0 0.0 0.00 0.08 0.08 100
20260905203603 49 0 0.0 0.0 0.00 0.08 0.08 100
20260905202703 49 0 0.0 0.0 0.00 0.08 0.08 100
20260905201803 48 0 0.0 0.0 0.00 0.08 0.08 100
20260905200903 48 0 0.0 0.0 0.00 0.08 0.08 100
20260905200219 49 0 0.0 0.0 0.00 0.08 0.08 100
20260905195403 49 0 0.0 0.0 0.00 0.08 0.08 100
20260905194503 49 356 0.0 1.0 0.00 0.08 0.08 100
20260905193603 49 0 0.0 0.0 0.00 0.08 0.08 100
20260905192703 49 356 0.0 2.0 0.00 0.08 0.08 100
20260905191803 49 356 0.0 1.0 0.00 0.08 0.08 100
20260905190903 50 0 0.0 0.0 0.00 0.08 0.08 100
20260905190003 50 0 0.0 0.0 0.00 0.08 0.08 100
20260905185619 50 0 0.0 0.0 0.00 0.08 0.08 100
20260905184503 50 0 0.0 0.0 0.00 0.08 0.08 100
20260905183603 50 0 0.0 0.0 0.00 0.08 0.08 100
20260905182703 51 0 0.0 0.0 0.00 0.08 0.08 100
20260905181803 51 0 0.0 0.0 0.00 0.08 0.08 100
20260905180903 51 0 0.0 0.0 0.00 0.08 0.08 100
20260905180003 52 0 0.0 0.0 0.00 0.08 0.08 100
20260905175403 52 356 0.0 1.0 0.00 0.08 0.08 100
20260905174717 52 356 0.0 1.0 0.00 0.08 0.08 100
20260905173603 53 337 0.0 3.0 0.00 0.08 0.08 100
20260905172703 54 288 0.0 2.0 0.00 0.09 0.08 99
20260905171803 54 288 0.0 1.0 0.00 0.09 0.08 97
20260905170903 55 0 0.0 0.0 0.00 0.09 0.08 96
20260905170003 56 0 0.0 0.0 0.00 0.10 0.08 95
20260905165403 56 288 0.0 1.0 0.00 0.11 0.08 94
20260905164503 57 288 0.0 1.0 0.00 0.14 0.08 92
20260905163603 59 288 0.0 1.0 0.00 0.18 0.08 93
20260905162916 58 288 0.0 1.0 0.00 0.23 0.08 95
20260905161803 57 288 0.0 1.0 0.00 0.29 0.08 94
20260905160903 58 0 0.0 0.0 0.00 0.33 0.08 93
20260905160218 58 288 0.0 1.0 0.00 0.35 0.08 93
20260905155403 58 291 1.0 4.0 0.00 0.37 0.08 94
20260905154503 59 295 1.0 4.0 0.00 0.40 0.08 90
20260905153603 58 295 1.0 3.0 0.00 0.43 0.08 91
20260905152703 57 294 1.0 3.0 0.00 0.45 0.08 95
20260905151803 57 297 1.0 3.0 0.00 0.45 0.08 96
20260905150903 56 296 0.0 2.0 0.01 0.45 0.08 100
20260905150218 56 295 0.0 2.0 0.02 0.45 0.08 100
20260905145403 55 295 0.0 2.0 0.02 0.45 0.08 100
20260905144503 55 0 0.0 0.0 0.02 0.45 0.08 100
20260905143603 55 322 0.0 3.0 0.02 0.45 0.08 98
20260905142703 56 333 0.0 3.0 0.02 0.45 0.08 96
20260905141803 56 352 0.0 3.0 0.02 0.45 0.08 94
20260905140903 56 351 0.0 3.0 0.02 0.44 0.07 94
20260905140004 56 307 1.0 6.0 0.02 0.43 0.06 93
20260905135617 57 303 0.0 6.0 0.03 0.43 0.06 93
20260905134503 57 0 0.0 0.0 0.04 0.43 0.06 94
20260905133603 57 291 1.0 4.0 0.04 0.43 0.06 94
20260905132703 57 287 2.0 4.0 0.04 0.44 0.06 94
20260905131803 57 271 0.0 4.0 0.04 0.46 0.06 94
20260905130903 58 269 0.0 2.0 0.05 0.47 0.06 91
20260905130003 57 322 1.0 3.0 0.04 0.46 0.04 89
20260905125403 57 29 0.0 2.0 0.02 0.45 0.02 94
20260905124503 57 0 0.0 0.0 0.02 0.45 0.02 92
20260905123603 58 0 0.0 0.0 0.02 0.45 0.02 91
20260905122703 58 0 0.0 0.0 0.02 0.45 0.02 88
20260905121803 60 336 2.0 7.0 0.02 0.46 0.02 83
20260905120903 62 296 4.0 10.0 0.01 0.44 0.01 75
20260905120003 62 288 1.0 7.0 0.00 0.43 0.00 75
20260905115403 60 312 1.0 4.0 0.00 0.43 0.00 78
20260905114503 60 292 3.0 6.0 0.00 0.43 0.00 81
20260905113603 60 269 2.0 7.0 0.00 0.43 0.00 81
20260905112918 60 278 3.0 6.0 0.00 0.43 0.00 81
20260905112017 59 266 3.0 7.0 0.00 0.43 0.00 82
20260905110903 60 266 2.0 7.0 0.00 0.43 0.00 81
20260905110216 60 287 2.0 5.0 0.00 0.43 0.00 81
20260905105403 60 267 3.0 9.0 0.00 0.43 0.00 83
20260905104503 60 268 4.0 9.0 0.00 0.43 0.00 81
20260905103818 61 283 4.0 10.0 0.00 0.43 0.00 78
20260905102703 61 304 4.0 10.0 0.00 0.43 0.00 73
20260905101803 61 295 3.0 7.0 0.00 0.43 0.00 74
20260905100903 61 273 3.0 10.0 0.00 0.43 0.00 78
20260905100003 61 278 4.0 10.0 0.00 0.43 0.00 80
20260905095619 60 277 4.0 10.0 0.00 0.43 0.00 79